Regional Weather Roundup
Issued by NWS Bismarck, ND

Home | Current Version | Previous Version | Text Only | Print | Product List | Glossary On
Versions: 1 2 3 4 5 6 7 8 9 10 11 12 13 14 15 16 17 18 19 20 21 22 23 24 25 26 27 28 29 30 31 32 33 34 35 36 37 38 39 40 41 42 43 44 45 46 47 48 49 50
000
ASUS43 KBIS 100302
RWRBIS

NWR BROADCAST TEXT
NATIONAL WEATHER SERVICE BISMARCK ND
900 PM CST TUE FEB 09 2016

NOTE: "FAIR" INDICATES FEW OR NO CLOUDS BELOW 12,000 FEET WITH NO
SIGNIFICANT WEATHER AND/OR OBSTRUCTIONS TO VISIBILITY.


CITY           SKY/WX    TMP DP  RH WIND       PRES   REMARKS
WILLISTON      CLOUDY    30  24  78 SW3       30.00F
MINOT          FLURRIES  24  15  68 E13       30.08F WCI  12
MINOT AFB      NOT AVBL
BISMARCK       CLOUDY    35  22  58 NE3       30.08F
DICKINSON      PTCLDY    26  20  77 S5        30.00F
GARRISON         N/A     29  21  72 E9        30.04F
HETTINGER ARPT CLOUDY    27  20  75 SE3       30.04F
JAMESTOWN      CLOUDY    14   8  77 E9        30.15R WCI   2
CARRINGTON     CLOUDY    14  12  92 E12       30.16F WCI   0
HAZEN          CLOUDY    32  23  69 SE3       30.07F
LINTON         CLOUDY    32  23  69 S5        30.09F
MANDAN         CLOUDY    32  19  59 SE5       30.07F
OAKES          CLOUDY    16  10  79 E13       30.16F WCI   2
RUGBY          FLURRIES  12   9  85 E13       30.14F WCI  -3
STANLEY        CLOUDY    30  28  93 SE7       30.02F
WATFORD CITY   FAIR      30  25  80 CALM      30.01F
$$

CITY           SKY/WX    TMP DP  RH WIND       PRES   REMARKS
GRAND FORKS    CLOUDY     4  -3  73 N9        30.25F WCI -10
GRAND FORKS AF CLOUDY     3  -2  79 NE6       30.23F WCI  -8
DEVILS LAKE    CLOUDY    10   4  76 E8        30.17F WCI  -2
FARGO          PTCLDY     8   2  76 NE10      30.24R WCI  -6
CAVALIER       FAIR       3   0  85 NE6       30.25F WCI  -8
GRAFTON        FAIR       3  -2  78 N10       30.27F WCI -12
GWINNER        MOCLDY    16  12  86 NE10      30.18F WCI   3
LANGDON        FAIR       3  -2  78 E3        30.16F
ROLLA          CLOUDY     9   3  78 E9        30.15S WCI  -5
$$

CITY           SKY/WX    TMP DP  RH WIND       PRES   REMARKS
ABERDEEN       CLOUDY    23  14  68 NE10      30.14F WCI  12
MOBRIDGE       CLOUDY    33  22  63 SE6       30.05F
BUFFALO          N/A     33  26  75 W8        29.96F
RAPID CITY     CLEAR     28  24  85 CALM      30.08F
GLASGOW        CLOUDY    39  31  72 SW3       29.99F
SIDNEY         PTCLDY    32  21  64 CALM      30.01F
WOLF POINT     CLOUDY    33  29  85 CALM      30.00F
GLENDIVE       CLOUDY    37  28  70 NW7       30.02F
MILES CITY     CLEAR     40  29  64 NW9       30.04F
BAKER          CLOUDY    34  26  72 W9        30.02F
$$

CITY           SKY/WX    TMP DP  RH WIND       PRES   REMARKS
BILLINGS       CLEAR     47  23  38 SW23      30.11F
GREAT FALLS    CLOUDY    47  21  35 S14       30.11F
$$




USA.gov is the U.S. government's official web portal to all federal, state and local government web resources and services.